Marianna, FL

11:19 AM CDT on March 28, 2017 (GMT -0500)
Marianna Municipal

Weather History for KMAI - September, 2013

Change the Weather History Date:

Friday, September 20, 2013

  Actual Average Record
Temperature  
Mean Temperature 80 °F 77 °F  
Max Temperature 91 °F 87 °F 99 °F (2010)
Min Temperature 68 °F 67 °F 59 °F (2006)
Degree Days  
Heating Degree Days 0    
Month to date heating degree days 0  
Since 1 July heating degree days 0  
Cooling Degree Days 15    
Month to date cooling degree days 329  
Year to date cooling degree days 2192  
Growing Degree Days 30 (Base 50)    
Moisture  
Dew Point 68 °F    
Average Humidity 67    
Maximum Humidity 90    
Minimum Humidity 44    
Precipitation  
Precipitation 0.00 in 0.12 in 0.62 in (1998)
Month to date precipitation 0.57 2.56  
Year to date precipitation 51.25 40.89  
Sea Level Pressure  
Sea Level Pressure 29.97 in    
Wind  
Wind Speed 3 mph (SE)    
Max Wind Speed 12 mph    
Max Gust Speed 23 mph    
Visibility 10 miles    
Events      
T = Trace of Precipitation, MM = Missing Value Source: NWS Daily Summary

Daily Weather History Graph

Daily Weather History Graph

Search for Another Location

Airport or City:

Trip Planner

Search our weather history database for the weather conditions in past years. The results will help you decide how hot, cold, wet, or windy it might be!

Date:

Astronomy

Sep. 20, 2013 Rise Set
Actual Time 6:28 AM CDT 6:39 PM CDT
Civil Twilight 6:03 AM CDT 7:03 PM CDT
Nautical Twilight 5:35 AM CDT 7:31 PM CDT
Astronomical Twilight 5:07 AM CDT 8:00 PM CDT
Moon 7:22 PM CDT (9/20) 7:33 AM CDT (9/20)
Length of Visible Light 12h 59m
Length of Day
12h 11m
Full, 98% of the Moon is Illuminated
Sep 20
Full
Sep 26
Last Quarter
Oct 4
New
Oct 11
First Quarter
Oct 18
Full

Hourly Weather History & Observations

Time (CDT) Temp. Heat Index Dew Point Humidity Pressure Visibility Wind Dir Wind Speed Gust Speed Precip Events Conditions
12:53 AM 73.0 °F - 63.0 °F 71% 30.04 in 10.0 mi East 3.5 mph - N/A   Clear
1:53 AM 71.1 °F - 64.0 °F 78% 30.04 in 10.0 mi East 3.5 mph - N/A   Clear
2:53 AM 71.1 °F - 66.0 °F 84% 30.03 in 10.0 mi Calm Calm - N/A   Clear
3:53 AM 71.1 °F - 66.9 °F 87% 30.02 in 10.0 mi Calm Calm - N/A   Clear
4:53 AM 69.1 °F - 66.9 °F 93% 30.02 in 10.0 mi Calm Calm - N/A   Clear
5:53 AM 69.1 °F - 66.9 °F 93% 30.03 in 10.0 mi Calm Calm - N/A   Clear
6:53 AM 69.1 °F - 66.9 °F 93% 30.03 in 10.0 mi East 3.5 mph - N/A   Clear
7:53 AM 72.0 °F - 68.0 °F 87% 30.04 in 10.0 mi Calm Calm - N/A   Clear
8:53 AM 75.0 °F - 70.0 °F 84% 30.05 in 10.0 mi Variable 3.5 mph - N/A   Clear
9:53 AM 79.0 °F - 71.1 °F 77% 30.04 in 10.0 mi Calm Calm - N/A   Clear
10:53 AM 82.9 °F 87.5 °F 71.1 °F 67% 30.03 in 10.0 mi ESE 6.9 mph - N/A   Clear
11:53 AM 87.1 °F 91.3 °F 69.1 °F 55% 30.00 in 10.0 mi South 4.6 mph - N/A   Clear
12:53 PM 89.1 °F 92.9 °F 68.0 °F 50% 29.97 in 10.0 mi East 8.1 mph - N/A   Scattered Clouds
1:53 PM 90.0 °F 92.4 °F 66.0 °F 45% 29.94 in 10.0 mi Calm Calm - N/A   Scattered Clouds
2:53 PM 90.0 °F 92.4 °F 66.0 °F 45% 29.92 in 10.0 mi SE 5.8 mph - N/A   Partly Cloudy
3:53 PM 89.1 °F 91.0 °F 64.9 °F 45% 29.89 in 10.0 mi Variable 3.5 mph - N/A   Scattered Clouds
4:53 PM 89.1 °F 91.0 °F 64.9 °F 45% 29.89 in 10.0 mi SE 5.8 mph - N/A   Clear
5:53 PM 86.0 °F 88.2 °F 66.0 °F 51% 29.89 in 10.0 mi East 4.6 mph - N/A   Clear
6:53 PM 82.0 °F 84.9 °F 68.0 °F 62% 29.90 in 10.0 mi South 6.9 mph - N/A   Partly Cloudy
7:53 PM 81.0 °F 84.1 °F 69.1 °F 67% 29.92 in 10.0 mi South 6.9 mph - N/A   Mostly Cloudy
8:53 PM 78.1 °F - 69.1 °F 74% 29.94 in 10.0 mi SW 5.8 mph - N/A   Mostly Cloudy
9:53 PM 75.9 °F - 71.1 °F 85% 29.93 in 10.0 mi Calm Calm - N/A   Scattered Clouds
10:53 PM 75.9 °F - 69.1 °F 79% 29.92 in 10.0 mi Calm Calm - N/A   Clear
11:53 PM 73.9 °F - 69.1 °F 85% 29.91 in 10.0 mi Calm Calm - N/A   Clear